Temperature
16 17 17 17 17 17 17 17 17 17 17 17 17 17 17 17 17 16 16 16 16 16 16 16 16 16 16 16 16 16 16 16 16 16 16 16 15 15 15 15 15 15 15
16 17 17 17 17 17 17 16 16 16 16 16 16 17 17 17 16 16 16 16 16 16 16 16 16 16 16 16 16 16 16 16 16 15 15 15 15 15 15 15 15 15 15
16 16 16 16 17 16 16 16 16 16 16 16 16 16 16 16 16 16 16 16 16 16 16 16 16 16 16 16 16 16 16 16 15 15 15 15 15 15 15 15 15 15 15
15 16 16 16 16 16 16 16 16 16 16 16 16 16 16 16 16 16 16 16 16 16 16 16 16 16 16 16 16 16 16 15 15 14 14 14 14 15 15 15 14 14 14
15 15 16 16 16 16 16 16 16 16 16 16 16 16 16 16 16 16 16 16 16 16 16 16 16 16 16 16 16 16 15 15 14 14 14 14 14 14 14 14 14 14 14
15 15 15 16 16 16 16 16 16 16 16 16 16 16 16 16 16 16 16 16 16 16 16 16 16 16 16 16 16 15 15 15 14 14 14 14 14 14 14 14 14 14 14
14 15 15 15 15 16 16 16 16 16 16 16 16 16 16 16 16 16 16 16 16 16 16 16 15 15 16 15 15 15 15 15 14 14 14 14 14 14 14 14 14 14 14
14 15 15 15 15 15 15 15 15 15 15 15 15 15 16 16 16 16 16 15 15 15 15 15 15 15 15 15 15 15 15 15 14 14 14 14 14 14 14 14 14 14 14
14 14 14 14 15 15 15 15 15 15 15 15 15 15 15 15 15 15 15 15 15 15 15 15 15 15 15 15 15 15 15 15 14 14 14 14 14 14 14 14 14 14 14
13 13 14 14 14 14 14 14 15 15 15 15 15 15 15 15 15 15 15 15 15 15 15 15 15 15 15 15 15 15 15 15 14 14 14 14 14 14 15 14 14 14 14
13 13 13 13 14 14 14 14 14 14 14 14 14 14 14 15 15 15 15 15 15 15 15 15 15 15 15 15 15 15 15 15 14 14 14 14 14 14 15 14 14 14 14
13 13 13 13 13 13 13 14 14 14 14 14 14 14 14 14 14 14 14 14 15 15 15 14 14 14 14 14 14 14 15 14 14 14 14 14 14 14 14 14 14 14 14
12 13 13 13 13 13 13 13 13 13 14 14 14 14 14 14 14 14 14 14 14 14 14 14 14 14 14 14 14 14 14 14 14 14 14 14 14 14 14 14 14 14 14
12 12 12 12 13 13 13 13 13 13 13 13 13 13 13 13 13 13 13 14 14 14 14 14 14 14 14 14 14 14 14 14 14 14 14 14 14 14 14 14 14 14 14
12 12 12 12 12 12 12 13 13 13 13 13 13 13 13 13 13 13 13 13 13 13 13 13 13 13 14 14 14 14 14 14 14 14 14 14 14 14 14 14 14 14 14
11 12 12 12 12 12 12 12 12 12 12 12 12 12 12 12 12 12 13 13 13 13 13 13 13 13 13 13 13 13 13 13 13 13 13 13 14 14 14 14 14 14 14
11 11 11 12 12 12 12 12 12 12 11 11 12 12 12 12 12 12 12 12 12 12 12 13 13 13 13 13 13 13 13 13 13 13 13 13 13 13 14 14 14 14 14
11 11 11 11 11 11 11 11 11 11 11 11 11 11 11 11 11 12 12 12 12 12 12 12 12 12 13 13 13 13 13 13 13 13 13 13 13 13 13 13 13 13 13
10 10 11 11 11 11 11 11 10 11 11 11 11 11 11 11 11 11 11 11 11 11 11 11 12 12 12 12 13 13 13 13 13 13 13 13 13 13 13 13 13 13 13
10 10 10 10 10 10 10 10 10 10 10 10 10 10 10 10 10 10 11 11 11 11 11 11 11 12 12 12 12 12 12 12 13 13 12 12 12 12 13 13 13 13 13
10 10 10 10 10 10 10 10 10 10 10 10 10 10 10 10 10 10 10 10 10 10 10 11 11 11 11 11 11 12 12 12 12 12 12 12 12 12 12 12 13 13 13
9 9 9 9 9 9 9 9 9 9 9 9 9 9 9 9 9 9 9 10 10 10 10 10 10 10 10 11 11 11 11 11 12 12 12 12 12 12 12 12 12 12 12
9 9 9 9 9 9 9 8 8 8 8 8 8 8 9 9 9 9 9 9 9 9 9 9 9 10 10 10 10 10 10 11 11 11 11 12 12 12 12 12 12 12 12
9 9 9 9 8 8 8 8 8 7 7 7 8 8 8 8 8 8 8 8 9 9 9 9 9 9 9 9 9 10 10 10 10 10 11 11 11 11 11 11 11 11 11
9 8 8 8 8 8 8 7 7 7 7 7 7 7 7 7 7 8 8 8 8 8 8 9 9 8 9 9 9 9 9 9 10 9 9 10 10 11 11 11 11 11 11
8 8 8 8 8 8 7 7 7 7 6 7 7 7 7 7 7 7 7 7 8 8 8 8 8 8 8 8 8 8 8 8 9 9 9 9 9 10 10 10 10 10 10
Wind_Speed
6 9 10 9 8 8 7 6 6 6 6 6 6 6 6 6 6 6 5 6 6 7 7 8 8 9 9 9 10 11 11 11 11 12 13 12 11 11 10 10 12 12 13
6 10 11 9 8 7 7 7 6 5 5 5 5 5 5 5 5 5 5 5 6 6 7 7 7 8 8 9 9 9 9 9 9 11 12 12 11 11 11 12 12 11 12
7 10 11 9 8 7 7 7 6 5 4 4 4 4 4 4 4 4 4 4 5 5 6 6 7 8 8 8 8 8 7 7 7 7 8 9 10 9 10 11 12 12 11
8 10 11 9 8 7 6 6 5 4 3 3 3 4 4 5 5 4 4 4 4 4 5 6 7 7 8 8 8 7 6 5 4 4 5 8 9 9 9 9 10 10 10
8 10 11 10 8 7 6 5 5 3 2 2 2 3 3 4 4 5 5 4 4 4 4 6 7 7 7 7 7 7 6 4 4 4 4 9 10 9 8 8 8 9 9
8 10 10 10 9 7 6 5 4 3 2 1 1 2 2 3 4 4 4 5 5 5 5 6 7 7 7 7 7 7 6 5 5 5 5 9 10 9 8 7 7 8 8
7 9 10 10 8 7 6 5 4 3 3 1 0 1 2 3 4 4 5 5 6 6 6 6 7 8 8 7 7 7 6 6 6 3 5 9 10 9 8 7 7 7 7
7 7 8 9 8 7 5 5 4 3 3 2 1 1 2 4 4 5 6 6 7 7 7 7 7 8 8 8 8 8 7 7 6 3 6 10 11 9 8 7 6 6 6
7 6 6 6 6 6 6 4 3 3 2 1 1 2 3 3 5 6 7 7 8 8 8 8 8 8 9 9 9 9 9 9 8 4 6 9 11 9 8 7 6 6 6
6 5 5 5 5 4 3 3 2 1 1 2 2 3 4 5 6 7 8 9 9 10 10 10 10 9 10 10 10 10 10 10 10 7 6 9 12 10 9 8 7 6 6
6 5 4 5 5 4 2 2 1 1 1 2 3 4 5 5 6 6 8 9 10 11 11 11 12 11 11 12 12 12 11 11 11 8 7 11 12 11 10 9 8 7 7
5 5 5 5 5 5 4 3 1 1 1 3 3 3 4 5 5 5 7 10 11 11 12 12 13 13 11 10 12 13 11 13 11 7 9 14 13 12 11 10 10 9 8
5 5 6 5 6 5 4 3 3 2 2 3 3 4 4 4 4 4 3 5 8 10 9 10 11 10 10 9 9 11 12 12 10 8 11 15 14 13 12 11 11 11 10
5 6 6 5 5 5 5 4 3 3 3 3 3 4 3 2 2 2 1 2 4 5 6 7 7 9 11 11 10 10 11 10 8 7 10 15 15 14 13 12 12 12 11
5 5 5 6 5 5 4 4 4 4 4 5 5 5 5 2 3 3 2 2 3 3 3 4 6 7 8 8 9 9 9 9 9 8 9 15 16 15 14 14 13 13 13
4 4 4 5 5 5 4 4 4 4 4 4 4 6 6 4 3 3 3 3 3 3 4 4 5 5 5 5 7 8 8 8 8 7 8 12 15 16 16 15 15 14 14
4 4 3 3 4 5 5 5 4 4 4 3 4 6 6 6 5 4 3 3 4 4 4 4 5 4 4 5 6 6 6 7 7 8 8 9 12 15 16 16 15 15 15
3 3 3 4 4 4 4 4 4 4 4 4 4 5 6 6 5 4 3 3 4 4 3 3 3 3 4 4 5 5 5 5 6 7 8 9 10 11 13 16 16 15 15
3 2 2 3 3 4 4 3 3 3 3 3 4 4 6 6 6 4 3 3 4 3 3 4 3 3 4 4 5 4 4 4 5 5 6 7 8 10 11 13 16 16 15
2 2 2 2 3 3 3 3 3 3 3 3 3 4 6 6 7 5 4 4 3 3 3 3 4 4 3 4 5 4 4 4 4 5 5 5 6 9 10 10 11 13 15
2 2 2 2 3 3 3 3 3 3 4 3 3 5 6 7 7 5 4 4 3 3 3 4 3 4 3 2 2 3 4 4 5 4 5 5 5 7 8 9 9 10 11
2 1 1 1 2 3 3 3 2 3 3 3 4 5 6 7 7 5 4 3 3 3 3 3 3 3 3 2 2 2 3 3 4 5 5 5 6 4 6 8 8 9 9
2 1 0 1 2 2 3 2 3 3 3 3 4 4 5 6 6 5 5 4 4 3 3 3 4 4 3 3 3 2 2 3 2 3 5 5 5 5 5 5 7 9 9
2 1 0 0 1 1 2 2 3 3 3 4 4 4 5 6 6 5 4 4 4 3 3 4 4 3 3 4 3 3 3 2 2 2 3 4 5 6 6 5 5 7 8
2 2 1 1 1 1 2 2 3 3 3 4 4 5 5 4 4 4 4 4 4 3 3 3 4 4 4 4 4 3 4 3 3 3 4 3 3 4 5 6 5 5 8
3 2 1 1 1 1 2 2 3 4 4 5 5 5 5 4 4 4 3 3 4 3 3 4 4 4 4 4 4 4 3 3 3 3 4 4 4 4 5 5 5 5 6
Wind_Direction
93 102 110 108 103 100 98 101 107 117 121 125 122 119 116 112 109 107 106 114 120 121 122 123 120 114 108 102 98 95 93 92 92 92 90 87 86 85 81 84 84 80 83
108 111 112 111 109 104 100 95 96 106 116 128 131 131 132 133 129 121 119 119 128 129 128 126 128 125 120 113 109 107 106 107 108 107 102 93 88 87 83 77 82 90 86
97 108 113 107 110 106 100 98 92 97 105 125 141 145 152 154 152 144 137 129 127 135 138 136 134 133 129 123 121 120 121 127 130 135 130 114 103 96 92 88 90 92 91
88 100 109 105 107 106 102 100 98 94 100 112 140 157 166 172 172 170 163 150 140 133 144 145 143 136 135 136 135 136 142 153 164 174 155 131 116 109 104 100 95 93 93
82 90 103 104 102 98 96 94 94 97 100 120 136 154 170 182 189 189 182 174 161 147 149 155 152 147 145 146 148 153 167 189 218 213 145 117 115 117 113 108 102 102 98
87 85 95 102 100 93 88 87 88 84 81 101 146 170 181 197 201 198 195 183 175 168 161 167 166 163 162 162 165 172 190 215 242 233 151 122 120 128 124 118 115 112 107
85 84 89 91 93 89 82 81 79 69 56 52 26 228 222 221 217 208 205 195 193 189 186 180 181 180 179 179 183 188 203 228 240 225 129 123 131 139 138 135 130 123 117
86 87 90 85 86 83 79 74 68 59 42 28 352 305 266 242 231 224 218 210 206 205 202 199 195 196 192 192 197 203 213 233 250 207 136 132 142 146 147 147 144 139 133
76 80 84 87 83 79 74 64 56 48 30 353 313 297 287 268 245 235 227 219 215 213 211 210 206 205 201 200 203 208 218 232 260 243 162 144 151 158 162 163 164 155 150
67 65 62 61 68 68 69 62 43 20 340 296 269 277 274 267 253 240 231 224 221 218 216 214 210 212 210 207 206 210 219 232 249 241 177 158 161 172 177 177 178 172 169
65 51 51 44 39 37 34 50 27 314 292 283 268 267 266 258 249 239 232 228 224 221 219 217 214 214 214 213 211 212 217 232 242 227 181 169 173 184 191 191 192 189 188
67 49 40 34 24 16 9 15 347 324 310 296 289 274 276 272 260 249 239 229 226 224 222 222 219 217 215 214 213 211 218 230 238 214 181 175 181 192 198 200 201 201 199
65 50 36 24 20 13 1 359 354 339 313 297 296 299 292 284 274 260 235 223 223 220 219 223 220 217 217 217 207 208 221 228 229 209 186 179 185 196 203 205 208 209 208
61 50 35 18 14 11 5 355 352 356 355 348 336 319 311 307 297 284 247 229 221 220 215 212 213 218 221 222 213 210 218 226 229 203 188 184 188 199 207 208 211 213 213
65 54 37 17 10 7 2 349 2 3 358 350 350 338 328 318 304 302 286 266 248 239 230 228 221 221 222 224 221 216 216 223 223 210 193 190 192 199 207 211 215 218 218
66 53 40 24 15 6 360 354 350 353 346 345 348 341 335 332 323 308 293 288 278 263 248 245 236 232 227 224 225 221 216 220 221 213 194 196 199 202 209 215 219 220 221
72 56 37 27 20 6 359 353 350 343 345 356 347 336 330 323 322 312 297 288 295 290 273 263 254 251 237 232 230 227 219 216 215 215 203 199 203 208 211 216 221 222 223
73 59 36 20 14 2 356 343 339 342 347 348 342 332 324 321 318 312 293 289 306 306 292 262 250 253 248 240 237 230 224 216 216 215 209 201 199 203 212 217 217 221 224
84 68 52 25 10 358 346 334 329 332 339 341 339 333 329 324 319 314 294 291 299 297 283 277 267 250 247 247 244 236 229 219 215 218 210 203 200 199 202 212 214 217 222
94 73 50 30 14 354 339 333 334 331 337 347 344 337 329 324 320 317 307 296 295 275 278 278 274 268 249 245 255 249 242 234 219 214 216 211 207 203 200 201 207 216 221
102 70 36 16 9 5 354 346 344 342 336 331 341 340 335 329 323 319 307 302 292 270 268 274 268 271 263 253 253 257 257 247 235 221 215 213 211 209 203 202 202 207 215
131 102 28 10 8 3 350 335 314 315 316 316 330 334 329 328 324 313 306 295 290 279 273 274 273 268 270 262 230 239 247 249 245 233 218 216 216 211 210 209 209 210 211
151 137 27 350 359 356 342 329 328 328 320 323 326 324 322 321 319 316 312 303 290 276 264 269 266 251 258 263 243 217 220 234 259 234 225 221 217 218 217 209 214 217 218
159 135 139 333 331 333 338 332 326 314 312 311 312 308 310 318 322 322 320 314 300 284 273 273 271 260 252 254 258 248 250 240 237 262 252 236 226 225 223 221 218 221 224
144 148 174 256 288 310 320 311 308 309 309 310 312 310 312 312 318 321 321 313 303 293 288 279 276 268 258 249 243 250 257 265 246 244 260 253 250 239 232 227 223 220 222
142 149 181 224 275 299 312 310 308 309 309 309 307 308 307 307 310 312 313 315 310 300 293 289 282 274 266 261 254 247 241 238 236 246 252 249 252 251 244 231 224 218 219
Height
1514 1515 1516 1518 1519 1520 1522 1523 1524 1526 1527 1528 1529 1529 1530 1531 1532 1533 1533 1534 1535 1536 1536 1537 1537 1538 1538 1539 1539 1539 1540 1540 1540 1540 1540 1541 1541 1541 1541 1541 1542 1542 1542
1513 1515 1516 1518 1519 1520 1522 1523 1524 1526 1527 1528 1529 1530 1531 1531 1532 1533 1534 1535 1536 1536 1537 1537 1538 1539 1539 1540 1540 1540 1540 1541 1541 1541 1541 1542 1542 1542 1542 1543 1543 1543 1543
1513 1514 1516 1518 1519 1520 1522 1523 1524 1525 1527 1528 1529 1530 1531 1531 1532 1533 1534 1535 1536 1537 1537 1538 1538 1539 1540 1540 1540 1541 1541 1541 1542 1542 1542 1543 1543 1543 1544 1544 1544 1544 1544
1513 1514 1515 1517 1519 1520 1521 1523 1524 1525 1526 1527 1528 1529 1530 1531 1532 1533 1534 1535 1536 1537 1537 1538 1539 1539 1540 1540 1541 1541 1542 1542 1543 1543 1544 1544 1544 1544 1544 1545 1545 1545 1545
1513 1514 1515 1517 1518 1520 1521 1522 1524 1525 1526 1527 1528 1529 1530 1531 1532 1533 1534 1535 1535 1536 1537 1538 1539 1539 1540 1540 1541 1542 1542 1543 1544 1544 1545 1545 1545 1545 1545 1545 1545 1546 1546
1513 1514 1515 1516 1518 1519 1520 1521 1523 1524 1525 1526 1527 1528 1529 1530 1531 1532 1533 1534 1535 1536 1537 1537 1538 1539 1540 1540 1541 1542 1542 1543 1544 1545 1545 1545 1545 1545 1545 1546 1546 1546 1546
1512 1513 1515 1516 1517 1518 1519 1521 1522 1523 1524 1525 1526 1527 1528 1529 1530 1531 1532 1533 1534 1535 1536 1537 1537 1538 1539 1540 1541 1542 1542 1543 1544 1545 1545 1545 1545 1545 1546 1546 1546 1546 1547
1512 1513 1514 1515 1516 1517 1519 1520 1521 1521 1522 1523 1524 1526 1527 1528 1529 1530 1531 1532 1533 1534 1535 1536 1536 1537 1538 1539 1540 1541 1542 1543 1543 1545 1545 1545 1545 1545 1546 1546 1546 1547 1547
1512 1513 1514 1515 1516 1516 1517 1518 1519 1520 1521 1522 1523 1524 1525 1526 1527 1528 1529 1530 1531 1532 1533 1534 1535 1536 1537 1538 1539 1540 1541 1542 1543 1544 1544 1544 1545 1545 1545 1546 1546 1546 1547
1512 1512 1513 1514 1514 1515 1516 1517 1518 1519 1519 1520 1521 1522 1523 1524 1525 1526 1527 1528 1529 1530 1531 1532 1533 1534 1535 1536 1537 1538 1539 1540 1541 1542 1543 1543 1544 1544 1545 1545 1545 1546 1546
1511 1512 1512 1513 1513 1514 1515 1515 1516 1517 1517 1518 1519 1520 1521 1522 1523 1524 1525 1526 1527 1528 1529 1530 1531 1532 1533 1534 1535 1536 1537 1539 1540 1541 1541 1542 1543 1543 1544 1544 1545 1545 1546
1510 1511 1511 1512 1512 1513 1513 1514 1514 1515 1515 1516 1517 1517 1518 1519 1520 1521 1522 1523 1524 1525 1526 1527 1528 1529 1530 1531 1533 1534 1535 1537 1538 1539 1539 1540 1541 1542 1542 1543 1543 1544 1544
1510 1510 1510 1511 1511 1511 1511 1512 1512 1513 1513 1514 1515 1515 1515 1516 1517 1518 1518 1520 1521 1522 1523 1524 1525 1526 1527 1528 1530 1531 1532 1534 1535 1536 1537 1538 1539 1540 1540 1541 1542 1542 1543
1509 1509 1509 1510 1510 1510 1510 1510 1510 1511 1511 1512 1512 1512 1513 1513 1514 1515 1515 1516 1517 1519 1519 1520 1521 1523 1524 1525 1527 1528 1529 1531 1532 1533 1534 1535 1536 1537 1538 1539 1539 1540 1541
1508 1508 1508 1508 1508 1508 1508 1508 1508 1509 1509 1509 1510 1510 1510 1510 1511 1512 1512 1513 1514 1515 1516 1517 1518 1519 1520 1522 1523 1524 1526 1527 1529 1530 1531 1532 1533 1534 1535 1536 1537 1538 1539
1506 1506 1507 1507 1507 1506 1506 1506 1506 1506 1506 1507 1507 1507 1507 1508 1508 1508 1509 1509 1510 1511 1512 1513 1514 1516 1517 1518 1519 1521 1522 1524 1525 1526 1527 1528 1530 1531 1532 1533 1534 1535 1536
1505 1505 1505 1505 1505 1505 1504 1504 1504 1504 1504 1504 1504 1504 1504 1504 1504 1504 1505 1505 1506 1507 1509 1510 1511 1512 1513 1514 1515 1517 1518 1519 1521 1522 1523 1524 1525 1527 1528 1529 1530 1531 1532
1504 1504 1504 1504 1503 1503 1502 1502 1501 1501 1501 1501 1501 1501 1501 1501 1501 1501 1501 1501 1502 1504 1505 1505 1507 1508 1509 1510 1511 1512 1513 1515 1516 1518 1519 1520 1521 1522 1524 1525 1526 1527 1528
1502 1502 1502 1502 1501 1501 1500 1499 1499 1498 1498 1498 1498 1498 1498 1498 1497 1497 1497 1497 1498 1499 1500 1501 1502 1503 1504 1505 1507 1507 1509 1510 1511 1513 1514 1515 1517 1518 1519 1520 1522 1523 1524
1501 1501 1501 1500 1499 1498 1498 1497 1496 1496 1495 1495 1495 1495 1494 1494 1494 1493 1493 1494 1494 1495 1496 1497 1498 1499 1500 1501 1502 1503 1504 1505 1507 1508 1509 1511 1512 1513 1514 1515 1517 1518 1519
1500 1500 1499 1498 1497 1496 1495 1494 1493 1493 1492 1492 1492 1491 1491 1490 1490 1489 1489 1490 1490 1491 1492 1493 1494 1494 1495 1497 1498 1498 1499 1500 1501 1502 1504 1505 1507 1508 1509 1510 1511 1512 1514
1498 1498 1497 1497 1496 1495 1494 1492 1492 1490 1489 1489 1489 1488 1488 1487 1486 1486 1485 1486 1486 1487 1488 1489 1490 1490 1491 1493 1494 1494 1494 1495 1495 1497 1498 1499 1501 1503 1504 1505 1506 1507 1508
1496 1496 1495 1495 1494 1493 1492 1491 1490 1488 1487 1486 1485 1485 1484 1484 1483 1482 1482 1482 1482 1483 1483 1484 1486 1486 1486 1488 1490 1491 1491 1490 1491 1492 1492 1494 1495 1496 1497 1499 1500 1501 1503
1494 1493 1493 1492 1492 1491 1490 1488 1487 1486 1484 1483 1482 1481 1481 1480 1479 1479 1478 1478 1478 1479 1479 1480 1481 1482 1483 1483 1485 1486 1487 1487 1488 1486 1487 1489 1490 1491 1492 1493 1494 1495 1497
1491 1491 1491 1490 1489 1488 1487 1486 1485 1484 1482 1481 1480 1478 1478 1477 1476 1475 1475 1474 1474 1474 1475 1475 1476 1477 1478 1479 1480 1481 1482 1482 1483 1484 1482 1483 1484 1486 1487 1488 1489 1490 1491
1489 1489 1488 1487 1487 1486 1485 1484 1483 1481 1480 1478 1477 1475 1474 1473 1472 1472 1471 1471 1470 1470 1470 1471 1472 1472 1473 1474 1475 1476 1477 1477 1477 1479 1478 1478 1479 1480 1482 1483 1483 1484 1485